Location: Baix
(44.7118°N, 4.7648°E)
Time: 07:17:08
(UTC+00:00)

Vanguard 1 - Pass Details

Date: 30 November 2020
Orbit: 648 x 3834 km, 34.3° (Epoch: 21 January)

Event Time Altitude Azimuth Distance (km) Brightness Sun altitude
Rises 04:19:06 0° 226° (SW) 3,236 - -27.4°
Reaches altitude 10° 04:21:26 10° 214° (SW) 2,505 - -27.0°
Exits shadow 04:23:11 19° 199° (SSW) 2,098 11.6 -26.7°
Maximum altitude 04:26:28 29° 155° (SSE) 1,943 11.8 -26.1°
Drops below altitude 10° 04:34:14 10° 100° (E) 3,960 14.2 -24.7°
Sets 04:39:01 0° 91° (E) 5,528 15.3 -23.9°
